TimeEST,TemperatureF,Dew PointF,Humidity,Sea Level PressureIn,VisibilityMPH,Wind Direction,Wind SpeedMPH,Gust SpeedMPH,PrecipitationIn,Events,Conditions,WindDirDegrees,DateUTC
12:53 AM,21.0,10.0,63,30.00,10.0,WNW,8.1,-,N/A,,Clear,300,2012-12-31 05:53:00
1:53 AM,19.9,10.0,65,30.02,10.0,West,6.9,-,N/A,,Clear,270,2012-12-31 06:53:00
2:53 AM,19.9,10.0,65,30.04,10.0,WSW,6.9,-,N/A,,Clear,250,2012-12-31 07:53:00
3:53 AM,21.0,10.9,65,30.05,10.0,West,10.4,-,N/A,,Clear,260,2012-12-31 08:53:00
4:53 AM,21.0,12.9,71,30.04,10.0,WSW,6.9,-,N/A,,Clear,250,2012-12-31 09:53:00
5:53 AM,21.0,12.9,71,30.07,10.0,WSW,8.1,-,N/A,,Clear,240,2012-12-31 10:53:00
6:53 AM,23.0,14.0,68,30.07,10.0,WSW,8.1,-,N/A,,Clear,250,2012-12-31 11:53:00
7:53 AM,25.0,16.0,69,30.06,10.0,WSW,8.1,-,N/A,,Partly Cloudy,250,2012-12-31 12:53:00
8:53 AM,28.0,19.0,69,30.07,10.0,WSW,11.5,-,N/A,,Overcast,250,2012-12-31 13:53:00
9:53 AM,28.9,19.9,69,30.07,10.0,West,10.4,-,N/A,,Overcast,260,2012-12-31 14:53:00
10:53 AM,30.0,21.0,69,30.04,10.0,West,12.7,17.3,N/A,,Overcast,260,2012-12-31 15:53:00
11:53 AM,30.9,21.0,67,30.01,10.0,West,10.4,17.3,N/A,,Overcast,270,2012-12-31 16:53:00
12:53 PM,33.1,21.9,64,29.96,10.0,West,16.1,23.0,N/A,,Overcast,270,2012-12-31 17:53:00
1:53 PM,33.1,21.9,64,29.94,10.0,West,13.8,24.2,N/A,,Clear,280,2012-12-31 18:53:00
2:53 PM,33.1,21.9,64,29.94,10.0,West,9.2,-,N/A,,Clear,280,2012-12-31 19:53:00
3:53 PM,32.0,21.9,66,29.93,10.0,WSW,3.5,-,N/A,,Clear,250,2012-12-31 20:53:00
4:53 PM,30.9,21.9,69,29.91,10.0,WSW,5.8,-,N/A,,Clear,250,2012-12-31 21:53:00
5:53 PM,30.9,21.9,69,29.90,10.0,SW,5.8,-,N/A,,Clear,230,2012-12-31 22:53:00
6:53 PM,33.8,21.2,60,29.90,10.0,WSW,10.4,-,N/A,,Clear,250,2012-12-31 23:53:00
7:53 PM,34.0,24.1,67,29.86,10.0,WSW,8.1,-,N/A,,Clear,240,2013-01-01 00:53:00
8:53 PM,34.0,26.1,73,29.84,10.0,WSW,6.9,-,N/A,,Partly Cloudy,250,2013-01-01 01:53:00
9:53 PM,35.1,25.0,67,29.82,10.0,WSW,12.7,18.4,N/A,,Mostly Cloudy,250,2013-01-01 02:53:00
10:53 PM,35.6,24.8,65,29.81,10.0,West,11.5,-,N/A,,Overcast,260,2013-01-01 03:53:00
11:53 PM,35.1,23.0,61,29.80,10.0,West,10.4,-,N/A,,Overcast,260,2013-01-01 04:53:00